Location: End
(50.0621°N, 11.0737°E)
Time: 02:26:22
(UTC+00:00)

Daily predictions for brighter satellites

Satellite Brightness Start Highest point End
(mag) Time Altitude Azimuth Time Altitude Azimuth Time Altitude Azimuth
ATLAS 5 CENTAUR R/B 4.4 03:01:21 16° NE 03:01:21 16° NE 03:02:24 10° NE
CZ-4C R/B 3.0 03:14:59 70° SE 03:14:59 70° SE 03:22:07 10° SE
Nadezhda 4 Rocket 4.2 03:40:25 35° N 03:43:11 69° ENE 03:49:18 10° SSE
Cosmos 1513 Rocket 4.5 03:43:56 47° S 03:45:57 83° E 03:52:22 10° N
Cosmos 1607 4.0 03:51:03 63° N 03:51:03 63° N 03:56:23 10° NE
USA 234 3.3 03:44:33 10° ENE 03:51:06 71° SE 03:52:36 54° SSW
Cosmos 1140 Rocket 3.8 03:53:34 60° SE 03:53:34 60° SE 03:57:51 10° SSE
Cosmos 2297 Rocket 3.4 03:55:50 31° N 03:55:50 31° N 03:58:56 10° NNE
Cosmos 1371 Rocket 4.3 03:53:23 59° SE 03:53:57 63° ESE 03:59:07 10° NNE
COSMO-SKYMED 1 3.5 03:50:11 10° SE 03:54:02 46° E 03:54:02 46° E
Cosmos 2227 Rocket 3.2 03:59:49 33° N 03:59:49 33° N 04:03:11 10° NNE
Okean O Rocket 4.2 03:56:49 10° NE 04:00:04 20° E 04:03:19 10° SE
Cosmos 1703 Rocket 4.3 04:03:22 45° NE 04:04:07 51° ENE 04:08:25 10° SSE
ALOS 4.0 04:02:01 10° NNE 04:06:15 32° E 04:10:26 10° SSE
NOSS 2-1 (E) 4.2 04:10:54 67° NW 04:11:47 86° SW 04:19:13 10° SE
GEOS 3 Rocket 4.0 04:08:50 10° SSE 04:12:58 48° SSW 04:12:58 48° SSW
Cosmos 1943 3.3 04:15:28 41° NNW 04:17:28 72° ENE 04:23:04 10° SE
Meteor 2-11 Rocket 4.3 04:13:17 10° SSW 04:19:23 79° WNW 04:25:33 10° N
STARLINK 1056 4.4 04:23:38 40° ESE 04:23:38 40° ESE 04:26:00 10° ESE
ATLAS CENTAUR R/B 3.7 04:24:15 15° N 04:24:57 16° NNE 04:27:36 10° NE
STARLINK 1054 4.2 04:26:32 44° SE 04:26:32 44° SE 04:29:00 10° ESE
Cosmos 2034 Rocket 3.9 04:20:45 10° SSW 04:27:02 71° WNW 04:33:26 10° N
STARLINK 1062 4.0 04:29:13 47° SE 04:29:13 47° SE 04:31:48 10° ESE
SL-16 R/B 4.1 04:34:24 14° SSW 04:34:24 14° SSW 04:35:28 10° SSW
STARLINK 1053 3.9 04:32:18 50° SE 04:32:18 50° SE 04:35:00 10° ESE
STARLINK 1061 3.8 04:34:51 52° SSE 04:34:51 52° SSE 04:37:39 10° ESE
STARLINK 1067 3.6 04:37:43 55° SSE 04:37:43 55° SSE 04:40:38 10° SE
Cosmos 1624 Rocket 3.9 04:35:03 29° SW 04:37:45 70° WNW 04:43:07 10° NNE
Cosmos 1603 3.6 04:35:59 43° NW 04:37:50 67° WSW 04:43:29 10° SSE
STARLINK 1058 3.5 04:40:27 56° SSE 04:40:27 56° SSE 04:43:27 10° SE
Cosmos 2195 Rocket 4.4 04:35:55 10° N 04:42:18 84° W 04:48:38 10° S
SKYMED 2 3.5 04:38:11 10° S 04:42:28 60° W 04:42:43 59° W
ATLAS 5 CENTAUR R/B 2.6 04:42:53 33° NNW 04:42:53 33° NNW 04:47:13 10° NE
STARLINK 1043 3.5 04:43:20 57° S 04:43:20 57° S 04:46:27 10° SE
Cosmos 2056 Rocket 3.3 04:40:46 31° SW 04:43:08 64° WNW 04:48:16 10° NNE
Cosmos 2082 4.2 04:44:17 38° NW 04:44:17 38° NW 04:49:31 10° NNE
Cosmos 676 Rocket 4.1 04:43:37 46° WNW 04:44:36 52° WSW 04:49:42 10° S
STARLINK 1065 3.4 04:46:06 57° S 04:46:06 57° S 04:49:18 10° SE
STARLINK 1044 4.0 04:49:29 33° SSE 04:49:29 33° SSE 04:51:26 10° SE
STARLINK 1063 3.4 04:49:03 56° SSW 04:49:03 56° SSW 04:52:22 10° SE
Cosmos 1092 Rocket 3.9 04:43:05 10° NNW 04:49:13 64° W 04:55:15 10° S
STARLINK 1064 3.4 04:51:47 54° SSW 04:51:48 54° SSW 04:55:12 10° SE
Geosat 4.4 04:47:09 10° S 04:51:53 40° WSW 04:52:34 38° W
STARLINK 1041 3.4 04:54:38 51° SW 04:54:44 52° SSW 04:58:08 10° SE
Cosmos 1954 Rocket 4.3 04:53:26 38° WNW 04:54:45 46° WSW 04:59:47 10° S
Okean 1 3.1 04:53:53 28° NNW 04:55:55 82° W 04:59:53 10° S
MOS 1-B 4.2 04:51:37 10° NNE 04:57:27 82° WNW 05:03:13 10° SSW
STARLINK 1038 3.5 04:57:30 48° SW 04:57:43 49° SSW 05:01:06 10° SE
Okean 1-7 3.1 04:57:01 32° NNW 04:58:48 56° W 05:03:06 10° S
STARLINK 1046 3.5 05:00:21 45° SW 05:00:40 47° SSW 05:04:03 10° SE
CZ-4C R/B 3.7 05:00:12 27° W 05:02:11 30° WSW 05:08:59 10° S
Cosmos 1420 Rocket 3.9 04:57:43 10° SSW 05:02:57 87° WNW 05:08:10 10° NNE
Cosmos 1461 4.0 05:03:44 27° WSW 05:03:44 27° WSW 05:07:15 10° S
STARLINK 1039 3.6 05:03:13 42° SW 05:03:39 45° SSW 05:07:00 10° SE
STARLINK 1045 3.6 05:04:20 41° WSW 05:04:49 45° SSW 05:08:11 10° SE
Cosmos 1515 4.3 05:02:20 10° N 05:06:06 58° ENE 05:09:53 10° SSE
Cosmos 1933 Rocket 4.4 05:07:35 29° NW 05:07:35 29° NW 05:10:29 10° N
Cosmos 1340 3.0 05:03:25 10° S 05:07:08 64° E 05:10:53 10° NNE
Meteor 1-20 Rocket 4.2 05:01:43 10° SSW 05:07:33 72° WNW 05:13:25 10° N
Cosmos 724 4.4 05:03:51 18° WSW 05:08:21 57° NW 05:14:12 10° NE
Helios 1A Rocket 2.9 05:05:44 10° NNE 05:09:48 82° ESE 05:13:50 10° SSW
CZ-2C R/B 4.2 05:08:31 10° N 05:09:29 14° NNW 05:09:29 14° NNW
Cosmos 1741 Rocket 3.9 05:08:25 17° NNW 05:12:29 76° WSW 05:17:41 10° SSE
CZ-4B DEB 4.1 05:07:49 10° NNE 05:13:19 69° WNW 05:18:49 10° SSW
Cosmos 1602 3.5 05:09:51 10° SSW 05:13:40 78° W 05:17:31 10° N
Meteor 1-18 Rocket 4.2 05:12:19 10° NNW 05:17:45 55° W 05:23:09 10° S
Cosmos 1484 Rocket 3.5 05:16:41 10° N 05:20:12 30° WNW 05:23:38 10° SW
Cosmos 2263 Rocket 2.1 05:16:10 10° SSW 05:21:46 77° WNW 05:27:22 10° NNE
Cosmos 2221 Rocket 3.5 05:20:36 10° NNW 05:24:59 68° W 05:29:22 10° S
SWAS 4.4 05:23:11 10° SSW 05:27:30 89° WNW 05:31:52 10° NNE
Cosmos 1452 Rocket 3.4 05:24:31 10° SSW 05:29:47 68° WNW 05:35:05 10° NNE
COSMO-SKYMED 1 3.8 05:27:26 10° SW 05:30:46 21° W 05:31:14 21° W
NOAA 6 4.0 05:28:06 10° N 05:33:12 66° WNW 05:38:16 10° SSW
Cosmos 1850 Rocket 4.2 05:28:46 14° NW 05:33:15 51° WSW 05:38:25 10° S
Cosmos 2266 Rocket 4.3 05:27:34 10° N 05:33:52 72° ENE 05:40:00 10° SSE
USA 234 3.4 05:27:41 10° ENE 05:34:04 59° NNW 05:39:57 13° W
Cosmos 371 Rocket 4.3 05:30:18 10° S 05:34:58 51° ESE 05:39:42 10° NNE
Cosmos 2227 4.4 05:29:39 10° SW 05:35:15 51° NW 05:40:54 10° NNE
SMAP 3.7 05:30:37 10° NNE 05:35:16 61° ESE 05:39:52 10° S
Meteor 2-13 Rocket 4.4 05:30:21 10° NNW 05:36:29 77° W 05:42:37 10° S
Radarsat Rocket 4.2 05:30:31 10° NNE 05:36:38 84° ESE 05:43:25 10° SSW
Okean O Rocket 1.7 05:32:28 10° N 05:36:44 52° WNW 05:41:00 10° SW
ADEOS Rocket 3.3 05:31:42 10° SSE 05:38:43 87° ENE 05:45:02 10° NNW
Cosmos 2297 Rocket 3.8 05:37:40 14° NW 05:38:53 15° NNW 05:42:09 10° N
Meteor 1-11 Rocket 4.5 05:37:02 10° S 05:42:39 59° E 05:48:26 10° NNE
FENGYUN 3A 3.9 05:37:52 10° N 05:43:00 45° WNW 05:48:04 10° SW
Cosmos 2227 Rocket 3.8 05:41:40 14° NW 05:43:07 15° NNW 05:46:24 10° N
ALOS 2.8 05:39:25 10° N 05:43:42 36° WNW 05:47:56 10° SW
CZ-4B R/B 3.3 05:39:01 10° N 05:44:29 59° WNW 05:50:00 10° SW
Cosmos 44 4.0 05:40:30 10° SSW 05:45:07 53° ESE 05:49:31 10° NE
Okean-O 3.7 05:47:48 10° NNE 05:52:08 50° E 05:56:26 10° S
Cosmos 1666 4.4 05:49:41 10° SSE 05:53:12 36° E 05:56:43 10° NNE
Cosmos 1733 Rocket 3.0 05:49:00 10° S 05:53:18 84° W 05:57:40 10° N
YAOGAN 6 4.4 05:51:38 10° NNE 05:55:06 37° E 05:58:33 10° SSE
Cosmos 405 2.9 05:51:46 10° NNW 05:55:19 76° W 05:58:50 10° S
Cosmos 1844 Rocket 3.8 05:50:06 10° S 05:55:27 50° ESE 06:00:50 10° NE
Okean 3 3.9 05:53:11 10° NNW 05:57:07 40° W 06:01:02 10° SSW
Cosmos 1346 Rocket 3.2 05:54:45 10° SW 05:58:23 38° WNW 06:02:02 10° N
Cosmos 1943 4.4 05:57:19 12° WNW 06:00:56 22° W 06:05:05 10° SSW
Cosmos 2279 Rocket 4.2 05:57:57 10° SSW 06:03:55 49° WNW 06:09:59 10° N
H-2A R/B 2.7 06:00:30 10° N 06:04:12 62° WNW 06:07:54 10° SSW
ATLAS CENTAUR R/B 2.2 06:00:50 10° NNW 06:05:01 44° NE 06:08:52 10° ESE
AQUARIUS 4.1 06:02:13 10° N 06:06:43 75° WNW 06:11:12 10° SSW
BREEZE-M DEB (TANK) 2.6 06:03:46 10° W 06:09:54 84° S 06:12:23 10° E
Cosmos 2082 Rocket 3.9 06:06:58 10° NNW 06:11:39 26° NE 06:16:17 10° E
Cosmos 1655 Rocket 4.4 06:10:01 10° NNW 06:15:48 42° W 06:21:35 10° SSW
Cosmos 1975 Rocket 4.0 06:13:42 10° N 06:18:02 51° ENE 06:22:22 10° SSE
Cosmos 1674 Rocket 3.8 06:15:17 10° NNW 06:19:28 46° W 06:23:36 10° SSW
CZ-4 R/B 2.5 06:16:34 10° NNE 06:20:21 48° E 06:24:09 10° S
NOAA 12 4.1 06:16:35 10° NNE 06:21:52 88° WNW 06:27:07 10° SSW
Cosmos 1331 Rocket 3.9 06:16:47 10° SSW 06:21:56 73° WNW 06:27:08 10° NNE
YAOGAN 1 4.0 06:20:02 10° NNE 06:24:11 43° E 06:28:18 10° S
IRIDIUM 104 4.4 06:20:32 10° N 06:25:41 59° W 06:30:47 10° SSW
Meteor 2-4 Rocket 4.4 06:21:50 10° NNW 06:26:41 32° W 06:31:24 10° SSW
Meteor 1-5 Rocket 4.4 06:21:03 10° SSW 06:26:55 58° WNW 06:32:41 10° N
CZ-2C R/B 3.5 06:21:54 10° SE 06:27:02 51° ENE 06:32:04 10° N
NOSS 3-2 (A) 4.4 06:22:00 10° SSW 06:27:37 54° ESE 06:34:00 10° NE
